Wetbulb
66.57 63.68 57.70 54.74 45.91 44.73 40.34 44.59 49.63 51.33 54.24 56.84 57.52 54.02 54.99 55.67 54.96 50.06 60.92 66.35 67.33 68.21 71.02 72.93 74.15 73.87 73.22 72.80 72.30 72.03 71.62 71.17 70.81 70.01 68.96 68.36 67.97 67.39 66.96 66.59 66.54 66.48 66.59 66.56 66.64 66.43 66.22 66.48 66.62
60.60 59.42 54.88 51.55 42.11 39.14 39.88 47.22 48.54 53.48 57.63 58.45 56.66 56.12 56.14 56.24 60.44 61.98 62.40 67.61 68.01 69.10 70.87 71.56 74.07 73.65 73.42 72.85 72.43 72.01 71.35 71.19 70.92 70.19 68.82 68.25 68.06 67.73 67.41 67.22 67.04 67.34 67.53 67.31 67.23 67.36 67.60 67.78 67.70
60.83 58.86 49.60 47.26 43.24 40.02 41.09 48.81 52.21 57.56 59.06 57.70 56.65 58.37 58.16 58.55 63.28 62.99 65.00 68.14 68.43 68.96 70.72 70.99 73.92 73.40 73.47 73.08 72.41 71.74 71.49 71.39 70.97 70.10 69.46 68.90 68.45 68.67 68.67 67.61 67.75 67.84 68.08 68.17 68.24 68.66 68.64 69.12 69.09
57.17 54.76 50.39 44.04 42.96 46.20 46.98 50.36 53.41 55.58 58.52 58.10 57.68 55.78 58.05 63.49 63.94 64.87 68.57 68.53 67.84 68.47 70.26 71.63 73.84 73.52 73.37 73.03 72.41 71.89 71.64 71.32 71.14 70.63 70.10 69.62 68.97 69.50 69.18 67.92 68.13 68.19 68.70 69.10 69.39 69.61 69.69 69.95 70.07
54.98 49.89 41.54 41.51 44.05 49.09 52.48 53.91 53.21 52.42 56.06 56.55 57.50 55.90 55.77 61.10 64.98 68.41 68.33 68.36 66.33 67.70 69.39 70.73 74.02 73.65 73.37 73.25 72.63 71.99 71.49 71.30 71.32 71.19 70.54 70.08 70.34 70.18 68.98 68.54 68.76 69.00 69.34 69.76 69.99 70.27 70.71 70.97 70.98
49.58 48.45 40.57 39.65 43.78 49.12 51.98 53.38 53.42 53.69 56.78 57.63 56.93 55.69 55.98 60.59 65.93 67.50 68.32 67.42 67.21 67.13 68.22 69.56 73.72 73.45 73.15 73.10 72.71 71.89 71.40 71.22 71.35 71.35 71.37 71.05 70.90 70.53 69.36 69.23 69.55 69.65 69.82 70.16 70.49 70.59 70.83 70.51 70.51
46.16 43.96 41.62 43.64 45.74 48.28 52.46 53.49 51.85 54.17 53.12 55.59 56.85 53.90 55.68 59.55 62.96 67.88 67.95 67.32 66.67 66.80 67.02 68.56 71.07 71.99 73.42 72.95 72.50 71.74 71.54 71.27 71.37 71.52 71.44 71.42 71.39 71.10 70.83 70.34 69.89 69.96 70.26 70.90 71.25 71.03 70.73 70.70 69.94
48.41 45.23 40.65 43.37 44.86 46.33 53.48 53.08 53.28 52.77 54.21 57.76 59.11 53.71 52.89 59.65 61.58 64.77 65.94 65.77 65.90 65.59 65.38 66.98 69.35 69.75 69.97 70.57 72.88 72.13 71.91 71.64 71.42 71.56 71.63 71.48 71.73 71.63 71.53 70.95 71.11 70.24 70.68 71.30 71.52 71.12 70.29 69.85 69.55
50.78 41.40 39.37 42.95 45.10 47.47 52.55 52.19 56.08 57.61 55.73 56.14 56.87 56.87 58.77 61.24 60.56 59.50 58.15 58.44 63.46 66.33 64.58 65.81 67.48 67.97 68.67 68.74 70.19 72.08 72.09 72.03 71.63 71.58 71.85 70.86 68.89 69.23 69.42 70.42 70.63 70.56 71.20 71.49 71.41 70.83 70.45 69.29 68.34
48.66 41.38 42.43 47.24 49.18 48.31 50.10 50.20 52.19 53.52 53.65 53.64 55.04 58.95 59.98 60.30 58.89 58.47 56.92 57.33 58.19 64.70 65.46 66.73 66.97 66.64 67.36 68.06 67.47 69.14 68.79 68.74 69.22 68.90 68.65 68.97 67.09 66.71 68.86 69.36 70.68 70.61 71.22 71.65 71.60 71.16 69.68 68.58 63.72
51.31 47.15 49.22 49.87 51.02 51.40 50.84 49.93 52.93 52.07 50.54 53.40 54.18 56.37 58.05 58.44 56.78 56.55 56.95 57.49 57.21 61.36 65.51 67.07 67.27 66.91 66.09 66.32 66.84 68.01 68.20 67.76 68.17 67.74 67.19 67.14 67.14 66.62 67.99 65.82 66.76 67.46 70.91 68.58 69.49 68.19 66.38 64.65 62.62
48.41 52.50 53.95 53.16 53.35 52.86 52.04 53.76 51.74 51.86 52.39 55.69 56.65 57.28 57.12 56.86 56.54 56.15 55.41 55.87 55.86 55.58 63.55 67.17 67.70 67.27 66.52 65.70 66.42 66.32 67.24 66.79 67.04 67.50 66.53 66.80 66.05 64.38 63.97 64.17 62.97 64.77 66.41 66.46 65.36 65.01 63.83 62.91 62.63
46.35 50.78 52.29 54.22 53.94 54.79 55.70 53.44 52.88 53.12 55.75 56.73 57.11 57.14 56.74 56.63 55.87 55.46 56.16 56.06 55.66 54.78 58.12 65.70 67.52 67.28 67.33 66.15 65.93 65.80 66.89 66.31 66.02 66.65 66.87 66.52 65.60 64.34 63.75 63.21 62.69 63.18 63.57 64.06 63.18 62.27 61.83 61.42 61.53
44.02 46.24 47.62 49.63 50.48 50.37 50.35 50.97 52.14 53.70 56.70 56.70 56.94 56.41 55.54 54.87 55.08 54.94 55.13 55.33 55.74 56.33 55.57 61.45 66.65 67.20 67.13 66.75 66.20 66.03 66.59 66.29 65.65 66.67 66.81 66.27 65.35 63.99 63.54 62.99 62.84 62.13 62.04 62.69 62.40 61.91 61.18 60.92 61.34
43.85 40.77 44.71 45.49 45.35 45.63 49.88 47.28 48.58 53.25 55.02 54.43 55.45 55.10 55.16 54.54 55.24 54.67 55.34 55.34 56.56 56.95 57.34 57.09 64.91 67.03 66.88 67.03 66.71 66.79 66.86 66.51 65.61 66.36 66.51 66.09 65.33 64.04 63.42 63.10 61.91 61.90 62.27 61.61 61.17 61.00 60.68 60.24 60.46
40.90 39.09 37.14 44.31 46.22 47.03 48.07 42.87 49.91 53.20 53.41 53.09 53.89 53.60 54.33 55.18 54.92 55.57 55.95 55.63 56.18 55.86 55.52 55.76 63.32 66.76 66.78 66.89 66.79 67.10 67.34 66.91 66.11 65.89 65.82 65.96 65.65 64.76 63.43 64.00 62.74 62.76 61.79 61.01 60.87 60.10 59.56 59.24 59.00
37.80 36.17 37.61 41.42 47.13 46.69 46.37 43.80 49.69 52.30 51.86 51.22 52.09 53.00 53.56 53.90 54.36 55.39 56.59 56.91 56.91 56.31 56.35 55.90 61.01 66.16 66.98 66.95 66.89 66.61 66.29 66.45 66.20 65.48 65.56 65.71 65.87 65.18 64.57 63.73 62.59 62.31 61.25 60.51 60.40 59.44 59.18 58.30 58.58
34.30 35.59 38.29 38.47 43.65 45.51 44.16 44.23 48.30 50.28 49.94 49.88 50.36 51.48 52.30 53.20 54.04 56.17 57.18 57.32 56.14 55.50 55.48 55.68 59.37 63.22 65.96 65.64 64.22 64.59 65.53 64.43 65.20 65.71 66.35 66.29 66.09 65.67 64.14 63.13 62.44 61.92 60.95 60.65 59.89 59.64 58.83 59.01 59.19
37.66 37.28 36.61 40.93 44.75 44.04 43.06 43.70 46.11 48.66 49.28 49.54 50.65 51.75 52.23 52.70 54.26 55.33 55.78 56.48 55.19 54.78 54.73 55.52 58.99 62.27 65.05 65.20 64.78 63.97 64.71 63.54 63.43 65.29 65.84 65.46 65.49 65.63 63.83 62.69 61.93 61.30 61.07 60.86 59.68 58.69 58.79 58.33 59.21
36.95 34.85 34.58 39.68 43.15 41.28 41.76 41.88 44.89 47.17 48.10 49.42 49.84 50.07 50.55 51.54 52.95 53.96 54.25 53.95 54.14 55.86 55.51 54.06 57.90 63.02 65.11 65.80 65.65 63.27 62.86 61.51 63.21 64.51 65.53 65.69 65.25 64.87 63.38 62.18 61.47 61.14 60.23 59.90 58.95 60.76 57.20 58.22 59.75
35.13 34.36 35.26 35.84 40.62 41.83 39.57 38.28 40.85 44.28 45.41 47.42 48.67 49.82 49.77 50.14 51.26 51.74 52.83 53.06 53.51 54.75 56.82 58.32 59.94 63.89 64.98 64.24 62.99 62.02 61.63 60.83 60.34 61.26 62.61 63.39 64.24 63.91 63.13 62.42 61.53 60.70 59.73 59.29 58.14 57.58 57.58 55.33 58.43
31.04 38.69 39.01 38.34 35.50 30.89 38.62 30.06 38.47 41.90 43.04 45.19 45.87 47.01 48.21 49.63 50.42 50.92 52.43 52.36 53.21 55.28 61.13 62.78 63.99 64.88 65.10 64.76 62.60 62.55 61.37 60.22 58.91 59.94 60.52 61.87 63.44 63.42 63.36 64.11 62.59 61.84 60.55 58.70 58.28 59.08 56.74 55.92 54.83
34.28 38.54 37.59 38.17 35.14 31.82 33.80 29.80 36.84 39.17 39.72 42.41 44.89 46.34 47.89 49.49 50.15 49.94 51.28 51.19 54.61 60.75 62.94 64.13 65.26 65.25 64.67 63.78 63.14 61.32 59.94 59.17 58.98 59.59 60.04 60.16 61.04 62.43 63.28 62.84 62.74 61.03 59.13 58.98 59.02 58.94 57.18 56.64 55.94
38.67 35.88 35.76 35.40 32.14 24.87 33.32 31.83 33.70 37.15 40.07 42.12 45.00 46.49 47.79 48.11 48.83 49.45 51.52 52.66 58.40 61.78 64.22 64.85 64.71 62.81 63.17 62.63 61.30 60.93 59.90 58.79 58.88 58.34 58.72 58.94 59.40 60.66 62.07 61.59 60.60 59.90 59.27 59.18 58.96 58.90 58.34 57.54 56.74
34.72 28.35 22.59 21.50 22.46 25.01 35.15 32.40 35.58 39.26 42.18 43.18 43.78 45.49 46.86 47.53 47.38 50.19 56.32 57.98 60.44 62.31 62.95 63.75 63.50 61.32 61.56 60.99 60.16 60.08 59.47 59.40 58.96 58.71 58.82 58.60 58.92 58.96 59.73 59.98 59.07 58.85 59.52 59.31 58.94 58.76 58.82 58.18 56.84
31.25 29.52 22.89 19.99 22.29 26.17 35.93 30.15 35.66 42.24 45.21 46.51 46.74 45.94 46.48 46.86 49.52 51.34 57.14 59.40 61.79 62.44 61.96 62.47 62.24 59.93 60.08 59.92 59.37 59.62 59.43 59.34 59.14 58.81 58.92 58.94 58.72 58.94 59.56 59.62 58.99 59.65 59.97 60.14 60.32 60.01 59.77 59.08 58.40
32.26 27.77 33.52 26.91 28.80 25.16 30.83 35.04 40.60 43.87 44.25 44.62 44.87 44.83 44.89 48.99 54.79 56.56 59.53 61.19 61.72 61.51 60.27 61.59 60.92 59.75 60.13 59.53 59.39 59.39 59.76 59.50 58.95 58.84 58.95 58.70 58.55 59.56 59.26 59.78 59.78 60.19 61.00 60.65 60.65 60.78 60.82 60.59 58.90
34.81 37.15 26.87 25.15 21.21 20.78 27.70 30.60 33.88 38.59 41.75 43.02 43.99 44.35 46.83 53.96 56.16 58.79 60.45 60.77 61.05 60.89 60.05 60.55 60.30 60.17 59.74 59.72 60.27 60.09 59.64 59.43 59.06 58.73 58.45 58.47 58.25 59.26 59.51 59.50 59.62 60.14 60.42 60.83 60.26 60.40 60.67 59.56 57.54
31.59 30.22 31.37 29.63 27.03 22.77 22.96 27.90 38.59 40.45 41.92 42.43 43.83 46.70 50.29 54.37 56.74 59.01 59.89 60.26 60.60 60.11 60.26 59.30 59.69 60.08 59.60 60.03 59.32 59.64 59.57 59.70 59.22 59.01 58.97 58.80 58.39 59.73 59.62 60.21 60.63 60.55 59.84 59.92 59.77 59.92 59.84 59.04 58.47
35.41 33.44 32.30 25.63 25.47 28.80 27.06 29.46 42.46 40.55 40.93 43.53 46.00 50.53 53.81 55.50 57.56 58.94 59.28 60.08 60.43 59.81 59.93 58.89 59.17 59.94 59.80 59.64 59.51 59.16 59.30 58.90 58.28 58.52 58.92 58.43 58.69 59.58 59.85 60.52 60.93 61.02 60.18 59.02 59.38 59.95 59.72 58.58 58.60
MSLP
1010.64 1010.40 1010.75 1010.75 1011.92 1011.94 1010.98 1009.08 1007.10 1005.90 1004.99 1004.01 1003.62 1004.02 1004.04 1003.95 1004.98 1005.09 1003.94 1004.20 1004.79 1005.52 1006.46 1007.10 1007.49 1007.99 1008.31 1008.41 1008.62 1008.67 1008.82 1009.12 1009.30 1009.56 1009.96 1010.29 1010.64 1010.92 1011.17 1011.39 1011.53 1011.72 1011.87 1012.08 1012.26 1012.39 1012.58 1012.74 1012.82
1010.38 1010.63 1010.70 1011.04 1011.48 1011.63 1010.24 1007.87 1006.51 1005.10 1004.41 1003.79 1002.99 1003.27 1003.70 1003.81 1003.72 1003.79 1004.04 1004.56 1004.97 1005.57 1006.31 1007.03 1007.29 1007.44 1007.82 1008.05 1008.26 1008.33 1008.69 1009.00 1009.21 1009.50 1009.86 1010.15 1010.41 1010.74 1011.14 1011.34 1011.51 1011.64 1011.78 1011.96 1012.13 1012.32 1012.42 1012.64 1012.72
1010.27 1010.44 1010.71 1011.13 1010.86 1010.55 1009.21 1006.73 1005.69 1004.84 1004.15 1003.59 1002.74 1002.52 1002.75 1002.85 1002.92 1003.41 1003.65 1004.27 1005.01 1005.57 1005.77 1006.51 1006.85 1006.98 1007.31 1007.70 1008.01 1008.07 1008.40 1008.80 1009.06 1009.34 1009.60 1009.88 1010.20 1010.58 1011.02 1011.26 1011.52 1011.70 1011.77 1011.93 1012.18 1012.27 1012.35 1012.62 1012.66
1010.11 1010.70 1011.04 1010.92 1009.76 1008.98 1007.70 1006.45 1005.24 1004.62 1003.97 1003.47 1002.50 1002.58 1002.38 1002.03 1002.44 1002.55 1003.46 1004.07 1004.64 1005.27 1005.58 1006.05 1006.36 1006.79 1006.91 1007.28 1007.76 1007.86 1008.16 1008.52 1008.85 1009.17 1009.47 1009.70 1010.01 1010.51 1010.83 1011.12 1011.36 1011.78 1011.89 1011.97 1012.08 1012.33 1012.23 1012.43 1012.59
1010.27 1010.87 1011.19 1010.61 1009.07 1007.87 1006.81 1005.89 1005.19 1004.34 1003.86 1003.33 1002.69 1002.45 1002.49 1002.43 1002.57 1002.52 1003.38 1003.86 1004.27 1005.03 1005.37 1005.71 1006.15 1006.45 1006.64 1006.97 1007.42 1007.57 1007.94 1008.20 1008.47 1008.86 1009.33 1009.61 1009.97 1010.37 1010.66 1010.97 1011.20 1011.51 1011.93 1012.04 1012.06 1012.20 1012.20 1012.28 1012.49
1010.62 1010.95 1011.25 1010.03 1008.45 1007.08 1006.30 1005.45 1004.89 1003.79 1003.27 1002.92 1002.62 1002.46 1002.56 1002.41 1002.66 1002.63 1003.21 1003.56 1003.90 1004.48 1005.11 1005.38 1005.70 1006.05 1006.29 1006.48 1006.88 1007.19 1007.67 1008.05 1008.29 1008.68 1008.97 1009.39 1009.87 1010.16 1010.47 1010.82 1010.95 1011.27 1011.74 1012.00 1012.03 1012.12 1012.22 1012.39 1012.51
1010.54 1010.95 1010.58 1009.55 1008.27 1007.04 1005.49 1004.71 1004.48 1003.59 1002.81 1002.41 1002.13 1002.45 1002.99 1002.70 1002.27 1002.71 1002.99 1003.45 1003.97 1004.61 1005.02 1005.27 1005.23 1005.43 1005.59 1006.03 1006.37 1006.86 1007.28 1007.63 1007.95 1008.42 1008.84 1009.18 1009.56 1009.85 1010.21 1010.62 1010.72 1011.06 1011.55 1011.78 1011.84 1011.94 1012.16 1012.34 1012.47
1010.14 1010.73 1010.16 1009.02 1007.98 1006.90 1005.19 1004.48 1003.58 1003.14 1002.62 1002.25 1002.11 1002.36 1002.85 1002.21 1002.30 1002.87 1003.73 1003.98 1004.09 1004.28 1004.87 1005.33 1005.69 1005.63 1005.82 1006.02 1006.07 1006.37 1006.95 1007.33 1007.63 1008.06 1008.52 1009.04 1009.41 1009.63 1010.05 1010.40 1010.55 1010.82 1011.21 1011.46 1011.53 1011.71 1011.98 1012.22 1012.34
1009.72 1010.46 1009.79 1008.38 1007.59 1006.25 1005.06 1004.22 1003.06 1002.83 1002.66 1002.90 1002.58 1002.52 1002.05 1001.71 1002.57 1003.20 1003.73 1004.19 1004.56 1004.75 1004.99 1005.07 1005.35 1005.41 1005.49 1005.91 1006.18 1006.39 1006.76 1007.36 1007.68 1007.99 1008.40 1008.89 1009.32 1009.68 1009.94 1010.15 1010.44 1010.58 1010.89 1011.11 1011.30 1011.61 1011.72 1011.99 1012.15
1009.41 1009.52 1008.41 1006.78 1006.69 1006.14 1005.55 1004.99 1003.93 1003.55 1003.13 1002.77 1002.68 1002.26 1001.93 1001.94 1002.57 1003.28 1003.79 1003.72 1004.11 1004.36 1004.33 1004.62 1004.93 1004.86 1005.34 1005.43 1005.82 1006.10 1006.44 1006.92 1007.33 1007.63 1008.08 1008.53 1009.03 1009.49 1009.93 1009.98 1010.05 1010.30 1010.56 1010.77 1010.97 1011.28 1011.50 1011.72 1012.07
1008.56 1007.90 1007.25 1005.90 1006.05 1006.20 1005.84 1005.36 1004.84 1004.44 1003.28 1002.96 1003.01 1002.31 1002.45 1002.28 1002.54 1003.02 1003.00 1002.93 1002.83 1002.65 1003.31 1003.49 1003.95 1004.37 1004.80 1005.07 1005.38 1005.62 1005.96 1006.28 1006.74 1007.11 1007.62 1008.19 1008.80 1009.30 1009.62 1009.95 1009.98 1010.08 1010.25 1010.61 1010.70 1011.09 1011.35 1011.67 1011.85
1008.02 1007.23 1007.02 1006.03 1006.06 1006.03 1005.68 1005.67 1005.30 1005.04 1004.01 1003.11 1002.51 1002.55 1002.52 1002.22 1002.36 1002.75 1002.93 1002.73 1002.49 1002.52 1002.44 1002.57 1003.14 1003.69 1004.02 1004.56 1004.90 1005.20 1005.59 1005.76 1006.23 1006.51 1006.95 1007.70 1008.48 1009.13 1009.61 1009.81 1009.83 1009.93 1010.02 1010.25 1010.43 1010.84 1011.12 1011.50 1011.54
1007.28 1006.92 1006.62 1006.17 1005.60 1005.55 1005.73 1005.06 1004.34 1003.93 1004.12 1003.26 1002.69 1002.53 1002.30 1002.12 1002.19 1002.00 1001.73 1001.71 1001.70 1002.19 1001.96 1002.22 1002.46 1002.67 1003.14 1003.87 1004.28 1004.57 1004.85 1005.06 1005.35 1006.02 1006.46 1007.03 1007.77 1008.44 1009.17 1009.44 1009.46 1009.58 1009.69 1009.97 1010.30 1010.63 1010.92 1011.31 1011.25
1006.57 1006.47 1006.42 1006.21 1005.70 1005.41 1005.59 1004.65 1004.21 1002.97 1002.68 1002.55 1002.40 1002.07 1001.85 1001.96 1001.75 1001.31 1001.22 1001.23 1001.24 1000.93 1000.92 1001.13 1001.79 1002.07 1002.87 1003.05 1003.23 1003.42 1004.00 1004.42 1004.89 1005.52 1005.86 1006.33 1006.97 1008.13 1008.79 1009.00 1009.17 1009.35 1009.39 1009.54 1009.86 1010.21 1010.50 1010.86 1011.00
1006.73 1006.82 1006.31 1005.62 1005.74 1005.43 1005.05 1003.82 1002.46 1002.80 1002.48 1001.82 1001.63 1001.47 1001.15 1001.08 1000.99 1001.07 1000.70 1000.51 1000.20 1000.03 1000.02 1000.47 1000.41 1001.07 1001.64 1002.03 1002.15 1002.67 1003.13 1003.87 1004.27 1004.77 1005.28 1005.88 1006.41 1007.53 1007.81 1008.54 1008.97 1008.85 1009.01 1009.30 1009.63 1010.01 1010.38 1010.65 1010.72
1007.04 1007.04 1006.36 1004.31 1005.29 1005.00 1005.12 1001.12 1002.01 1002.09 1002.12 1001.44 1001.14 1000.76 1000.52 1000.10 1000.03 999.86 999.83 999.79 999.52 999.43 999.56 999.43 999.64 1000.04 1000.65 1001.05 1001.69 1002.17 1002.59 1003.23 1003.82 1004.62 1004.91 1005.53 1006.09 1006.58 1007.45 1008.12 1008.31 1008.47 1008.85 1009.26 1009.45 1009.81 1010.22 1010.36 1010.46
1007.25 1006.42 1005.24 1005.13 1004.29 1004.44 1004.47 999.97 1001.90 1001.82 1001.90 1001.14 1000.91 1000.37 1000.14 1000.01 999.77 999.50 999.24 999.06 998.70 998.61 998.62 998.68 999.31 999.29 999.70 1000.18 1000.89 1001.61 1002.39 1002.89 1003.57 1004.17 1004.74 1005.12 1005.46 1006.09 1006.75 1007.31 1007.88 1008.23 1008.66 1009.06 1009.37 1009.73 1009.90 1010.15 1010.33
1006.58 1006.16 1005.77 1005.15 1004.52 1004.35 1003.82 1000.74 1001.70 1001.63 1001.37 1000.73 1000.52 1000.08 999.89 999.60 999.31 998.86 998.51 998.15 998.06 997.81 998.01 998.32 998.51 998.87 999.52 1000.45 1001.07 1001.69 1002.29 1002.73 1003.31 1003.90 1004.38 1004.62 1005.28 1005.73 1006.75 1007.50 1007.70 1008.07 1008.62 1009.07 1009.25 1009.40 1009.60 1009.78 1009.94
1006.86 1006.64 1006.35 1005.47 1004.69 1004.29 1003.44 1001.60 1001.29 1001.54 1001.15 1000.52 1000.03 999.70 999.27 998.98 998.75 998.38 998.03 997.65 997.66 997.51 997.70 997.73 998.06 998.45 999.33 1000.32 1001.04 1001.74 1001.92 1002.40 1003.14 1003.68 1004.05 1004.33 1004.90 1005.55 1006.43 1006.92 1007.44 1007.91 1008.27 1008.42 1008.88 1009.26 1009.41 1009.58 1009.75
1007.25 1007.04 1006.80 1006.28 1005.52 1004.88 1003.72 1002.44 1001.33 1000.98 1000.31 999.87 999.44 999.12 998.87 998.65 998.24 998.00 997.66 997.33 997.35 997.04 996.81 997.12 997.38 998.07 998.59 999.27 1000.05 1000.65 1001.57 1002.42 1002.71 1003.38 1003.76 1003.95 1004.34 1005.08 1005.74 1006.35 1007.09 1007.50 1008.00 1008.33 1008.68 1009.02 1009.27 1009.35 1009.40
1007.12 1006.98 1007.01 1006.87 1006.10 1004.91 1004.58 1002.31 1001.15 1000.16 999.62 999.21 998.68 998.28 998.10 997.86 997.82 997.61 997.29 997.03 996.82 996.68 996.56 996.61 996.97 997.52 998.40 999.35 999.95 1000.57 1001.42 1002.33 1003.06 1003.55 1003.78 1004.15 1004.51 1004.89 1005.51 1005.99 1006.66 1007.22 1007.72 1008.10 1008.31 1008.61 1008.92 1009.09 1009.13
1006.73 1007.03 1006.98 1006.85 1006.93 1006.12 1005.15 1002.18 1000.93 999.81 998.77 998.50 998.37 997.67 997.33 997.10 997.12 997.05 996.93 996.65 996.22 996.02 996.48 996.86 997.19 997.79 998.51 999.00 999.66 1000.44 1000.72 1002.01 1002.62 1003.13 1003.58 1004.15 1004.59 1005.08 1005.61 1006.04 1006.61 1006.97 1007.29 1007.75 1007.92 1008.09 1008.37 1008.64 1008.92
1006.38 1006.86 1007.01 1007.08 1007.14 1006.67 1005.79 1005.07 997.41 998.92 997.99 997.14 996.96 996.91 996.23 996.22 996.49 996.43 996.27 996.23 996.00 996.14 996.74 997.23 997.85 998.03 998.63 998.83 999.42 1000.41 1001.26 1001.89 1002.50 1003.24 1003.92 1004.43 1004.84 1005.22 1005.64 1006.15 1006.61 1006.94 1007.26 1007.33 1007.50 1007.80 1008.12 1008.34 1008.59
1006.28 1006.59 1006.86 1007.27 1007.66 1006.76 1005.37 1005.33 997.52 998.11 996.70 996.25 996.43 996.32 996.03 995.91 996.03 995.94 995.76 995.75 996.09 996.32 996.76 997.31 997.84 998.39 998.87 999.19 999.74 1000.40 1001.30 1002.16 1002.93 1003.57 1004.07 1004.59 1004.97 1005.33 1005.75 1006.16 1006.48 1006.69 1006.85 1007.04 1007.23 1007.47 1007.75 1007.99 1008.25
1006.24 1006.83 1007.33 1008.01 1007.75 1005.40 1004.33 1004.07 997.66 997.33 996.58 996.37 996.14 995.83 995.70 995.63 995.78 995.65 995.86 996.14 996.49 996.82 997.37 997.62 998.09 998.87 999.23 999.63 1000.24 1000.85 1001.47 1002.06 1002.66 1003.41 1004.06 1004.73 1005.22 1005.67 1005.89 1006.06 1006.30 1006.46 1006.55 1006.76 1007.05 1007.30 1007.49 1007.69 1007.91
1005.76 1006.62 1006.83 1006.82 1006.48 1005.43 1004.46 1001.19 997.76 996.35 995.60 995.20 995.23 995.25 995.23 995.26 995.44 995.54 995.84 996.41 996.67 997.07 997.67 998.06 998.53 999.17 999.59 1000.14 1000.86 1001.36 1001.82 1002.30 1002.86 1003.41 1003.99 1004.55 1005.11 1005.42 1005.54 1005.75 1005.99 1006.20 1006.37 1006.49 1006.77 1007.15 1007.26 1007.31 1007.40
1005.52 1006.10 1006.08 1006.68 1006.22 1005.88 1002.91 999.71 997.72 995.99 995.40 995.26 994.82 995.02 995.12 995.18 995.53 995.95 996.39 996.67 997.07 997.69 998.19 998.46 998.92 999.62 1000.09 1000.68 1001.38 1001.93 1002.20 1002.58 1003.21 1003.74 1004.08 1004.67 1004.98 1005.25 1005.48 1005.67 1005.88 1006.03 1006.16 1006.40 1006.55 1006.60 1006.42 1006.73 1006.80
1005.17 1005.53 1006.32 1006.66 1006.36 1005.24 1002.25 999.95 996.86 995.42 994.77 995.54 995.29 995.26 995.10 995.47 996.01 996.45 996.82 997.10 997.64 998.12 998.51 998.72 999.37 1000.07 1000.63 1001.21 1001.77 1002.19 1002.53 1002.97 1003.42 1003.87 1004.44 1004.82 1005.11 1005.18 1005.38 1005.68 1005.87 1005.99 1006.13 1006.22 1006.33 1006.31 1006.37 1006.35 1006.70
1005.77 1005.74 1006.01 1006.04 1005.78 1004.42 1002.52 998.48 996.26 996.08 995.52 995.64 994.74 994.61 994.91 995.55 996.08 996.57 997.22 997.56 997.99 998.59 998.94 999.38 999.80 1000.47 1001.14 1001.57 1002.08 1002.50 1002.93 1003.24 1003.65 1004.15 1004.54 1004.83 1005.00 1005.18 1005.48 1005.76 1005.85 1006.04 1006.15 1006.22 1006.19 1006.19 1006.21 1006.32 1006.49
1006.05 1005.93 1006.04 1006.10 1005.58 1004.20 1002.72 998.38 995.95 995.86 995.79 995.71 994.76 994.15 994.42 995.41 996.41 996.95 997.69 997.87 998.40 999.01 999.24 999.78 1000.39 1000.78 1001.33 1001.81 1002.32 1002.79 1003.13 1003.45 1003.93 1004.33 1004.58 1004.78 1005.06 1005.27 1005.51 1005.65 1005.86 1006.07 1006.16 1006.20 1006.08 1006.05 1006.11 1006.20 1006.56
Wind_Speed
5 4 1 3 4 4 4 7 4 4 1 4 1 5 12 8 7 7 4 11 10 13 13 17 21 20 20 19 19 18 17 17 17 17 16 16 15 15 14 13 12 11 10 9 7 6 5 4 3
3 3 3 2 5 2 7 6 8 4 6 3 4 5 3 2 4 2 5 6 8 14 13 14 22 22 22 21 20 20 19 18 17 18 18 17 16 16 14 13 12 11 10 9 7 6 5 4 4
4 2 4 4 4 6 6 6 2 3 9 6 5 1 6 5 3 7 2 12 12 13 15 16 24 24 23 21 21 20 20 19 19 19 18 18 17 16 15 14 12 11 10 9 8 7 6 6 6
3 3 3 3 7 6 7 2 4 4 5 7 3 6 2 6 9 9 12 14 14 14 15 20 25 23 23 22 21 21 21 20 20 19 19 18 18 16 15 15 13 12 11 10 9 8 8 9 9
2 3 1 4 6 4 6 9 7 8 3 6 3 4 1 3 2 11 13 13 15 14 13 16 24 23 23 23 22 21 21 21 21 20 19 18 17 16 16 15 13 12 11 10 10 9 9 10 9
2 4 0 6 5 3 3 8 6 6 6 4 3 3 1 2 6 9 10 13 12 16 14 14 22 23 23 23 23 22 22 21 20 20 20 18 18 17 16 15 14 12 12 11 10 9 8 9 9
5 4 5 4 3 5 3 3 4 5 7 4 3 6 3 2 10 6 11 8 7 8 11 12 16 20 24 23 23 22 22 22 21 20 19 19 18 17 16 15 14 13 12 12 11 10 9 9 10
5 4 2 5 4 5 5 3 4 1 3 6 2 4 4 9 7 6 2 3 5 7 9 9 10 12 13 14 22 23 22 22 21 20 20 18 18 17 16 14 13 13 13 13 12 12 10 9 10
5 2 5 7 8 4 6 7 3 1 4 3 2 3 8 1 6 6 4 2 2 4 7 8 11 12 12 12 13 18 21 20 19 18 19 15 7 8 12 11 13 14 14 13 12 12 9 10 11
5 6 11 8 8 2 8 7 15 7 14 7 4 3 6 3 5 9 7 10 8 12 11 11 12 13 12 10 11 12 11 10 10 11 11 8 6 6 8 10 15 14 14 13 12 12 11 10 3
6 10 15 11 10 6 8 4 8 14 18 15 6 7 7 6 6 9 11 10 15 17 8 15 14 13 14 12 9 7 7 7 7 10 9 7 6 5 5 3 3 4 11 4 6 6 4 4 3
6 10 14 11 5 4 12 3 10 15 19 16 18 13 8 11 10 9 9 10 9 9 15 14 15 14 14 9 9 9 9 9 8 9 11 8 6 6 5 4 5 4 4 5 5 3 4 5 5
15 9 6 9 9 11 11 18 19 20 15 16 17 15 13 12 10 9 10 8 8 9 11 13 13 15 13 12 8 9 10 10 10 9 10 9 8 8 6 5 4 5 4 4 4 5 4 5 5
1 8 13 11 15 7 12 19 16 16 19 18 15 15 12 11 12 8 8 8 8 10 10 11 13 13 12 14 14 12 10 10 9 8 9 12 9 6 7 6 6 4 4 4 4 5 5 5 4
4 8 11 13 4 7 3 22 26 18 22 24 18 14 15 11 10 11 10 11 11 10 11 10 15 14 16 17 15 11 10 9 9 9 11 12 11 9 10 6 5 6 4 5 4 4 3 4 3
3 4 15 16 13 7 8 34 9 6 16 23 19 13 13 17 11 10 10 10 11 10 10 10 9 15 16 15 13 9 9 8 8 7 8 12 11 11 7 5 5 4 4 4 4 3 3 4 4
5 12 15 11 5 7 13 39 13 14 14 19 15 15 14 13 11 12 13 15 15 13 14 10 10 13 17 13 9 8 7 7 7 7 7 12 12 10 9 7 5 5 4 3 3 4 4 3 4
11 14 3 4 3 8 12 31 18 10 9 14 12 14 15 18 18 19 21 17 12 10 8 6 8 8 7 5 5 4 5 4 6 7 8 11 8 9 6 5 5 5 4 4 4 5 3 4 5
6 6 2 4 7 12 17 28 23 17 19 22 22 23 23 20 15 14 15 15 9 9 8 10 9 9 10 6 7 5 8 7 5 6 8 9 9 10 9 5 5 5 5 5 3 1 4 3 3
12 10 8 6 11 5 10 18 17 14 16 17 17 16 15 14 16 16 14 10 10 15 11 8 10 9 9 7 5 4 5 2 5 6 7 7 9 10 8 7 5 6 4 4 3 4 2 3 4
7 8 9 8 9 18 12 18 15 12 12 15 12 15 11 13 15 13 13 12 9 10 9 8 9 8 6 8 8 7 7 5 4 3 4 3 5 6 6 6 5 5 4 4 4 4 6 3 3
16 4 9 4 5 9 0 19 20 17 23 20 12 16 14 15 11 9 12 13 9 9 5 5 7 9 9 9 8 11 7 8 3 4 3 4 5 6 6 5 5 5 4 5 4 4 4 4 4
7 12 11 10 8 4 4 5 25 4 17 20 20 19 22 20 16 13 14 10 7 7 6 7 9 9 9 8 11 8 8 4 4 4 7 4 5 6 6 6 6 5 4 4 5 4 4 3 3
6 4 8 9 2 6 11 9 27 10 16 12 10 10 11 11 10 10 9 5 4 6 7 9 10 7 8 9 9 10 11 7 6 5 5 4 3 3 5 5 5 5 4 5 4 4 5 5 3
5 4 1 2 4 13 13 12 25 7 4 4 8 10 11 10 9 9 7 6 7 8 7 8 11 8 8 9 8 8 8 8 9 7 6 6 4 2 4 5 5 4 4 4 4 4 5 5 4
7 10 6 7 5 5 11 16 13 10 16 17 14 11 9 10 7 7 6 6 9 10 8 9 11 10 9 9 8 7 8 5 5 5 5 4 3 4 4 4 4 4 4 5 3 3 3 5 5
2 5 9 4 3 2 8 10 14 20 18 9 12 6 10 9 4 6 7 9 9 9 8 10 11 10 10 10 8 7 7 8 6 6 5 4 3 3 5 5 4 3 4 3 3 5 5 5 4
6 3 3 1 5 6 6 9 13 6 24 3 9 10 9 5 7 8 8 10 8 9 8 10 11 11 10 9 8 7 7 7 7 6 6 5 5 5 5 3 2 1 0 2 5 3 4 5 3
2 2 4 3 5 5 3 8 7 12 8 9 14 14 10 9 9 9 8 9 9 8 8 9 12 12 9 8 7 8 6 7 6 6 6 6 5 5 4 4 3 2 1 1 3 4 4 5 4
2 4 3 4 7 8 2 9 8 6 5 9 15 16 8 9 9 10 9 10 11 10 10 10 9 10 8 7 7 7 6 6 6 6 6 5 6 4 4 4 3 2 2 3 3 5 4 4 4
Wind_Direction
192 165 191 59 68 63 265 255 266 294 274 216 328 162 178 155 172 210 311 163 119 137 157 166 170 175 176 173 169 163 159 156 154 152 152 152 154 154 157 158 160 162 162 164 165 166 170 180 196
163 169 47 95 108 110 266 239 239 241 242 264 146 111 128 189 180 181 108 146 139 146 151 169 178 178 179 177 174 167 164 163 161 159 161 163 163 165 168 169 171 173 176 179 183 189 196 216 222
175 240 108 148 170 172 232 222 172 270 298 289 127 92 163 201 145 163 111 136 136 155 161 175 183 183 179 179 178 170 169 170 168 170 171 171 170 174 175 178 180 185 188 193 202 209 220 239 242
155 355 25 160 217 225 224 305 329 298 288 264 209 131 138 192 163 175 148 145 152 167 171 180 186 184 180 180 181 176 175 176 176 177 179 178 177 181 181 184 186 194 201 207 215 230 233 244 254
72 72 189 236 239 231 266 278 284 269 228 276 284 150 121 344 296 132 159 159 164 177 178 183 186 187 184 182 184 180 182 181 181 181 184 183 182 184 186 189 190 196 210 219 225 241 256 258 258
79 116 232 237 233 249 262 255 278 284 220 237 297 65 189 173 153 180 164 177 179 173 182 189 188 190 188 187 186 184 186 187 186 187 186 186 187 187 191 195 195 201 214 225 233 244 257 262 256
149 122 221 246 268 308 231 325 247 223 277 255 137 128 291 239 228 149 188 177 168 175 184 186 191 194 193 191 188 188 189 190 189 190 191 190 190 190 193 199 200 204 218 228 239 247 253 254 261
137 121 221 241 199 264 263 213 238 73 357 18 22 158 217 225 199 161 123 173 176 181 193 197 205 198 199 199 194 192 194 194 192 192 193 195 195 194 197 200 205 208 219 231 241 244 251 253 255
139 109 217 233 170 227 298 344 220 277 340 20 338 152 250 224 126 133 162 189 170 214 201 192 201 201 196 200 205 196 199 202 199 198 198 196 192 200 200 198 204 213 222 230 231 242 242 251 255
165 184 223 198 204 106 326 345 316 352 318 294 311 336 300 195 156 191 197 212 204 219 204 198 204 202 197 198 196 199 198 199 200 198 197 191 172 179 194 201 207 217 225 225 227 235 237 248 228
202 218 228 243 217 199 261 270 271 303 298 269 289 297 270 211 210 216 225 210 211 216 198 199 201 195 197 202 193 193 192 192 196 191 181 174 171 185 196 195 216 203 229 215 220 230 224 223 218
238 214 225 254 229 231 231 228 246 240 252 281 290 279 283 293 275 222 229 255 241 208 215 205 202 196 200 194 196 195 197 195 196 195 176 171 172 178 189 198 207 212 192 201 195 197 204 233 231
244 237 227 247 260 249 266 259 258 250 249 264 267 276 264 259 249 259 252 265 248 216 216 218 195 201 195 193 191 196 201 201 197 187 181 179 179 182 186 209 197 209 190 194 191 196 205 228 231
125 219 244 248 257 264 255 265 264 266 270 251 259 260 247 231 245 267 275 246 244 245 229 204 201 200 189 198 195 199 197 200 187 187 187 180 178 171 196 210 207 207 194 199 191 194 202 219 213
262 293 282 237 198 242 1 272 252 258 266 271 272 263 270 256 246 227 238 245 254 249 247 196 199 186 191 200 202 195 197 193 192 185 178 182 178 180 199 209 211 206 196 192 180 205 199 225 222
215 190 243 253 224 218 165 262 238 253 242 260 260 261 271 278 276 278 261 252 259 252 233 219 197 189 192 195 202 201 192 187 183 180 175 179 183 188 176 201 202 194 180 176 175 165 200 217 207
236 239 228 261 202 207 183 258 248 246 254 261 265 268 272 275 284 278 273 265 258 244 242 231 187 188 197 197 189 187 174 175 174 162 172 180 184 178 187 194 191 173 161 172 174 195 192 194 229
216 230 300 181 206 225 236 257 252 244 250 259 262 268 270 272 271 272 271 265 255 254 240 220 188 184 170 160 120 115 146 153 153 168 180 173 169 175 171 188 178 161 150 193 193 200 203 209 227
341 301 17 337 227 218 224 251 257 254 253 257 258 261 261 265 261 266 267 261 263 259 214 210 177 177 158 154 158 162 183 159 154 163 162 157 162 172 177 175 169 160 190 201 166 216 237 257 202
261 276 277 280 270 270 280 273 280 266 257 256 259 255 253 267 271 269 265 266 252 252 223 210 206 165 177 171 166 131 137 119 143 156 164 169 161 169 169 166 180 187 178 196 208 206 237 238 179
235 226 253 246 311 298 304 285 273 261 253 253 255 257 253 243 260 263 270 258 249 242 232 200 191 157 136 127 117 108 104 92 97 116 125 173 173 157 175 166 178 193 185 207 200 193 196 214 202
253 229 254 260 209 259 32 290 272 270 265 259 246 253 255 250 248 241 260 270 245 243 151 143 121 123 132 143 120 148 136 148 151 144 132 160 154 151 178 170 169 173 168 200 200 189 191 163 185
249 236 251 226 239 276 253 290 279 245 259 250 247 247 250 253 247 245 251 252 241 167 149 119 131 127 141 134 137 135 120 109 110 104 131 127 136 159 152 158 161 174 188 198 189 188 189 188 166
253 224 228 224 129 250 221 201 275 234 249 246 239 243 244 244 247 250 262 257 185 121 128 132 127 115 120 127 125 132 133 126 119 121 117 122 119 125 142 156 179 180 180 191 199 208 200 197 198
176 83 262 126 191 229 198 201 241 271 277 255 254 257 258 263 265 247 214 160 131 120 119 117 124 115 114 109 110 122 123 132 134 140 138 138 132 142 177 173 178 187 199 204 190 206 206 204 194
191 162 183 182 182 224 250 233 244 230 258 258 260 258 262 258 256 246 170 141 128 119 114 120 121 109 106 106 104 106 118 120 118 127 130 133 146 158 170 176 179 191 208 217 194 207 224 205 205
227 162 215 3 239 220 234 277 282 270 269 277 270 280 257 250 197 146 130 128 116 114 117 124 116 110 108 109 108 111 115 116 130 128 120 137 131 162 170 167 166 210 236 241 211 209 202 208 203
167 205 99 132 223 238 259 253 235 254 252 280 273 251 252 180 140 130 126 121 115 117 118 109 118 118 119 116 120 123 119 117 120 119 134 145 161 154 148 137 173 191 346 211 205 200 219 168 179
285 197 210 191 208 220 290 260 205 211 271 323 299 290 205 174 145 133 128 122 115 115 119 115 118 123 120 119 121 125 128 128 129 135 143 154 144 155 149 165 163 158 200 267 221 214 167 150 166
272 246 168 192 232 253 252 266 277 295 321 301 302 305 141 131 126 123 127 125 127 129 126 122 125 127 133 132 128 129 129 131 132 144 152 156 163 155 157 163 158 138 227 233 206 205 180 171 171